Location: Central Falls
(41.8900°N, 71.3929°W)
Time: 15:53:57
(UTC+00:00)

Vanguard 1 - Pass Details

Date: 12 December 2023
Orbit: 653 x 3826 km, 34.3° (Epoch: 24 February)

Event Time Altitude Azimuth Distance (km) Brightness Sun altitude
Rises 18:56:55 0° 203° (SSW) 4,044 14.9 17.6°
Reaches altitude 10° 18:59:46 10° 190° (S) 3,418 14.3 17.3°
Maximum altitude 19:07:02 27° 136° (SE) 3,131 12.9 16.6°
Drops below altitude 10° 19:18:22 10° 87° (E) 5,503 13.5 15.3°
Sets 19:24:36 0° 78° (ENE) 7,055 14.0 14.6°
